[[{"header":{"parameterUnit":"m.s-1","parameterCategory":1,"la1":30.2991,"la2":30.254,"lo1":-89.0895,"lo2":-89.0444,"dy":0.0017,"dx":0.0017,"nx":28,"ny":28,"refTime":"2023-11-13T09:00:00:Z","depth":0,"parameterNumber":2,"parameterNumberName":"U-component_of_WINDS"},"data":[0,0,0,0,0,0,0,0,0,0,0,0,0,0,0,0,0,0,0,0,0,0,0,0,0,0,0,0,0,0,0,0,0,0,0,0,0,0,0,0,0,0,0,0,0,0,0,0,0,0,0,0,0,0,0,0,0,0,-5.8151,-5.8153,0,-5.8265,-5.8266,-5.8267,-5.8148,-5.8144,-5.8139,-5.8135,-5.8249,-5.8256,-5.8263,0,0,0,0,0,0,0,0,0,0,0,0,0,-5.7828,-5.7834,-5.8151,-5.8153,-5.8154,-5.8265,-5.8266,-5.8268,-5.8149,-5.8143,-5.8138,-5.8133,-5.8247,-5.8255,-5.8264,0,0,0,0,0,0,0,0,0,0,0,0,0,-5.7958,-5.7837,-5.8151,-5.8108,-5.8106,-5.8264,-5.8266,-5.8268,-5.815,-5.8143,-5.8136,-5.813,-5.8244,-5.8255,-5.8265,-5.8471,0,0,-5.8299,-5.8304,0,0,0,0,0,0,0,0,-5.795,-5.797,-5.8113,-5.8112,-5.8109,-5.8185,-5.8194,-5.8336,-5.8152,-5.8133,-5.8135,-5.8127,-5.8233,-5.8245,-5.8281,-5.8477,-5.8481,-5.83,-5.8307,-5.8311,-5.8314,0,0,0,0,0,0,0,-5.7942,-5.7964,-5.8196,-5.8115,-5.8113,-5.8082,-5.8093,-5.822,-5.8221,-5.8134,-5.8126,-5.8141,-5.8231,-5.8271,-5.8283,-5.8483,-5.83,-5.8309,-5.8316,-5.832,-5.885,-5.8857,0,0,0,0,0,0,-5.7938,-5.7957,-5.8192,-5.8199,-5.8011,-5.8094,-5.8106,-5.8168,-5.8219,-5.822,-5.8147,-5.8135,-5.8255,-5.827,-5.8287,-5.853,-5.8311,-5.8322,-5.8328,-5.8843,-5.8852,-5.886,0,0,0,0,0,0,-5.7931,-5.796,-5.8188,-5.8076,-5.8103,-5.8106,-5.8177,-5.8174,-5.8213,-5.8228,-5.8227,-5.8188,-5.8251,-5.8271,-5.8426,-5.8532,-5.8326,-5.8336,-5.8834,-5.8845,-5.8856,-5.9019,0,0,0,0,0,0,-5.7923,-5.7958,-5.8038,-5.8079,-5.8109,-5.8327,-5.8184,-5.8181,-5.8233,-5.8219,-5.8267,-5.8268,-5.8247,-5.841,-5.8437,-5.8543,-5.8345,-5.8824,-5.8839,-5.8852,-5.9004,-5.9034,-5.906,0,0,0,0,0,-5.7911,-5.8079,-5.8043,-5.8072,-5.8209,-5.8334,-5.8351,-5.8323,-5.8242,-5.8321,-5.833,-5.8267,-5.8516,-5.8427,-5.8456,-5.8568,-5.8818,-5.8835,-5.8851,-5.8991,-5.9028,-5.9059,0,0,0,0,0,0,-5.8051,-5.8084,-5.8044,-5.823,-5.828,-5.8313,-5.8412,-5.8364,-5.8437,-5.8421,-5.8383,-5.8394,-5.8558,-5.8578,-5.8478,-5.8768,-5.8653,-5.8677,-5.875,-5.8785,-5.8813,-5.8805,-5.8354,0,0,0,0,0,-5.8103,-5.8203,-5.8226,-5.8388,-5.8415,-5.841,-5.8463,-5.8437,-5.8487,-5.8507,-5.8528,-5.8578,-5.8667,-5.8727,-5.881,-5.9005,-5.9013,-5.9096,-5.9124,-5.9147,-5.9168,-5.9271,-5.9308,-5.8915,-5.8915,-5.8915,0,0,-5.8213,-5.8243,-5.8308,-5.8416,-5.8452,-5.8555,-5.8428,-5.8542,-5.8618,-5.8524,-5.8672,-5.8688,-5.8741,-5.8917,-5.8995,-5.8939,-5.9278,-5.9169,-5.9187,-5.9196,-5.9292,-5.933,-5.9363,-5.8926,-5.8924,-5.8923,0,0,-5.8464,-5.8498,-5.8636,-5.8674,-5.8729,-5.8724,-5.8757,-5.8798,-5.8805,-5.8952,-5.8884,-5.8971,-5.9127,-5.9167,-5.9208,-5.9471,-5.9415,-5.9499,-5.9646,-5.9747,-5.9778,-5.9806,-5.9899,-5.9933,-5.952,-5.952,-5.952,0,-5.8594,-5.8747,-5.8713,-5.8832,-5.8881,-5.88,-5.8939,-5.8977,-5.9057,-5.9092,-5.9026,-5.9218,-5.9248,-5.9431,-5.9495,-5.9531,-5.9566,-5.9495,-5.9777,-5.9804,-5.9829,-5.9917,-5.9953,-5.953,-5.9529,-5.9528,-5.9527,0,-5.8902,-5.9009,-5.9113,-5.9192,-5.9252,-5.9381,-5.9365,-5.943,-5.9398,-5.9399,-5.9549,-5.9582,-5.9669,-5.971,-5.9681,-5.9889,-5.9852,-5.9783,-5.9667,-5.9877,-5.9959,-5.9993,-5.9544,-5.9541,-5.9538,-5.9535,0,0,-5.9248,-5.9304,-5.9343,-5.9377,-5.9431,-5.9512,-5.9635,-5.9721,-5.9777,-5.9833,-5.9935,-6.0067,-6.0002,-6.0048,-6.0022,-6.011,-6.0316,-6.003,-6.003,-6.0082,-6.0546,-6.0599,-6.0639,-6.0278,-6.0285,-6.029,-6.0542,0,-5.9501,-5.9716,-5.9688,-5.9894,-5.9991,-5.9914,-6.0021,-6.0065,-6.0069,-6.015,-6.0153,-6.0247,-6.0155,-6.0182,-6.0266,-6.0274,-6.0409,-6.0255,-6.0372,-6.0376,-6.0362,-6.0682,-6.0739,-6.0975,-6.0574,-6.0579,-6.0583,0,-5.9826,-5.9894,-6.011,-6.0146,-6.0186,-6.0283,-6.0358,-6.0437,-6.0484,-6.048,-6.0531,-6.0487,-6.0609,-6.0489,-6.0655,-6.0551,-6.0597,-6.0607,-6.0615,-6.0626,-6.0494,-6.0702,-6.105,-6.1086,-6.0634,-6.063,-6.0626,0,-6.0056,-6.0201,-6.0349,-6.038,-6.0427,-6.0496,-6.0519,-6.0558,-6.0611,-6.0676,-6.0709,-6.0787,-6.083,-6.0891,-6.0869,-6.0784,-6.1039,-6.0918,-6.1039,-6.104,-6.1097,-6.1094,-6.1459,-6.1126,-6.1126,-6.1125,-6.1124,0,-6.0342,-6.0477,-6.0453,-6.0544,-6.0692,-6.0657,-6.0804,-6.0816,-6.0852,-6.0942,-6.088,-6.0966,-6.0932,-6.1015,-6.0999,-6.1138,-6.1158,-6.1157,-6.1151,-6.1164,-6.1164,-6.1194,-6.1177,-6.1134,-6.1132,-6.113,-6.1129,0,-6.0626,-6.0615,-6.077,-6.0801,-6.0811,-6.0919,-6.0944,-6.1028,-6.1026,-6.1141,-6.1166,-6.1162,-6.1257,-6.1241,-6.1346,-6.1334,-6.1508,-6.1482,-6.1493,-6.1487,-6.1609,-6.1598,-6.2006,-6.2057,-6.1691,-6.1695,-6.1698,0,-6.081,-6.0912,-6.0952,-6.1009,-6.1036,-6.1128,-6.1181,-6.1149,-6.1207,-6.1266,-6.1343,-6.1432,-6.1502,-6.1656,-6.1662,-6.1741,-6.1716,-6.1854,-6.1728,-6.1736,-6.1718,-6.1713,-6.1722,-6.1879,-6.1883,-6.1887,-6.1889,0,-6.1137,-6.1126,-6.1205,-6.1283,-6.1347,-6.1406,-6.1459,-6.1509,-6.1481,-6.1548,-6.1645,-6.1699,-6.1805,-6.1894,-6.1967,-6.1988,-6.1935,-6.1929,-6.1961,-6.1975,-6.1977,-6.1977,-6.1562,-6.192,-6.1917,-6.1915,-6.1913,-6.1912,-6.1376,-6.1463,-6.1505,-6.1594,-6.163,-6.168,-6.1761,-6.1768,-6.1847,-6.1932,-6.1907,-6.2017,-6.2057,-6.215,-6.218,-6.2263,-6.2212,-6.2259,-6.227,-6.2283,-6.2297,-6.1963,-6.2276,-6.2275,-6.2274,-6.2274,-6.2273,0,-6.1701,-6.1723,-6.1806,-6.1881,-6.1951,-6.1894,-6.1949,-6.2011,-6.2108,-6.2151,-6.222,-6.2329,-6.2414,-6.2426,-6.2506,-6.257,-6.2548,-6.2593,-6.2588,-6.2593,-6.2339,-6.2303,-6.2609,-6.2609,-6.2609,-6.2609,-6.2609,-6.2609,-6.1878,-6.202,-6.2014,-6.2173,-6.2193,-6.23,-6.2336,-6.2381,-6.2415,-6.254,-6.2611,-6.2617,-6.2647,-6.2728,-6.2803,-6.2804,-6.2836,-6.2891,-6.2883,-6.2645,-6.2611,-6.258,-6.2546,-6.2898,-6.2899,-6.313,-6.3132,-6.3134]},{"header":{"parameterUnit":"m.s-1","parameterCategory":1,"la1":30.2991,"la2":30.254,"lo1":-89.0895,"lo2":-89.0444,"dy":0.0017,"dx":0.0017,"nx":28,"ny":28,"refTime":"2023-11-13T09:00:00:Z","depth":0,"parameterNumber":3,"parameterNumberName":"V-component_of_WINDS"},"data":[0,0,0,0,0,0,0,0,0,0,0,0,0,0,0,0,0,0,0,0,0,0,0,0,0,0,0,0,0,0,0,0,0,0,0,0,0,0,0,0,0,0,0,0,0,0,0,0,0,0,0,0,0,0,0,0,0,0,-3.7452,-3.7452,0,-3.7506,-3.7507,-3.7508,-3.7476,-3.7474,-3.7473,-3.7471,-3.7528,-3.7531,-3.7534,0,0,0,0,0,0,0,0,0,0,0,0,0,-3.7319,-3.7322,-3.7452,-3.7452,-3.7453,-3.7506,-3.7507,-3.7508,-3.7476,-3.7474,-3.7472,-3.7471,-3.7527,-3.753,-3.7534,0,0,0,0,0,0,0,0,0,0,0,0,0,-3.7376,-3.7323,-3.7452,-3.7444,-3.7443,-3.7506,-3.7507,-3.7508,-3.7477,-3.7474,-3.7472,-3.747,-3.7526,-3.753,-3.7534,-3.7608,0,0,-3.7548,-3.755,0,0,0,0,0,0,0,0,-3.7373,-3.7381,-3.7444,-3.7444,-3.7444,-3.7482,-3.7481,-3.7541,-3.7477,-3.7464,-3.7471,-3.7469,-3.7514,-3.752,-3.7535,-3.7611,-3.7613,-3.7548,-3.7551,-3.7553,-3.7554,0,0,0,0,0,0,0,-3.7369,-3.7378,-3.7473,-3.7445,-3.7445,-3.7437,-3.7443,-3.7492,-3.7502,-3.7465,-3.7463,-3.747,-3.7514,-3.7531,-3.7536,-3.7614,-3.7548,-3.7552,-3.7555,-3.7556,-3.7751,-3.7754,0,0,0,0,0,0,-3.7365,-3.7375,-3.7472,-3.7475,-3.7402,-3.7441,-3.7448,-3.7472,-3.7501,-3.7503,-3.7472,-3.7468,-3.7524,-3.7531,-3.7538,-3.7625,-3.7553,-3.7557,-3.7559,-3.7749,-3.7752,-3.7755,0,0,0,0,0,0,-3.7363,-3.7374,-3.7469,-3.7424,-3.7436,-3.7446,-3.7474,-3.7474,-3.7491,-3.7506,-3.7507,-3.7487,-3.7523,-3.7532,-3.759,-3.7627,-3.7559,-3.7563,-3.7746,-3.775,-3.7753,-3.7801,0,0,0,0,0,0,-3.7359,-3.7373,-3.7402,-3.7425,-3.7438,-3.7521,-3.7476,-3.7477,-3.7499,-3.7495,-3.7521,-3.7523,-3.7522,-3.7584,-3.7595,-3.7631,-3.7566,-3.7743,-3.7747,-3.7752,-3.7796,-3.7805,-3.7814,0,0,0,0,0,-3.7354,-3.7413,-3.7403,-3.7415,-3.7474,-3.7523,-3.7531,-3.7528,-3.7502,-3.753,-3.7539,-3.7522,-3.7621,-3.759,-3.7602,-3.7641,-3.774,-3.7746,-3.7752,-3.7792,-3.7804,-3.7814,0,0,0,0,0,0,-3.7394,-3.7416,-3.7405,-3.7474,-3.7497,-3.7518,-3.7553,-3.7541,-3.7572,-3.7567,-3.7562,-3.7568,-3.7629,-3.7641,-3.7606,-3.7713,-3.7676,-3.7685,-3.7703,-3.7714,-3.7723,-3.7719,-3.757,0,0,0,0,0,-3.7411,-3.7449,-3.7466,-3.7525,-3.7537,-3.7543,-3.7565,-3.7561,-3.7584,-3.7594,-3.7608,-3.7631,-3.7668,-3.7692,-3.7726,-3.7797,-3.7802,-3.783,-3.7839,-3.7846,-3.7853,-3.7891,-3.7903,-3.7773,-3.7773,-3.7773,0,0,-3.7446,-3.7463,-3.7487,-3.7533,-3.7551,-3.759,-3.7552,-3.7595,-3.7624,-3.7601,-3.7657,-3.7667,-3.7694,-3.7759,-3.7788,-3.777,-3.789,-3.7853,-3.7859,-3.7862,-3.7898,-3.791,-3.7921,-3.7777,-3.7776,-3.7776,0,0,-3.7529,-3.7546,-3.7597,-3.7614,-3.7641,-3.7645,-3.7657,-3.768,-3.7686,-3.7742,-3.7724,-3.7759,-3.7822,-3.7841,-3.7858,-3.7948,-3.7933,-3.796,-3.8007,-3.8043,-3.8054,-3.8063,-3.8094,-3.8105,-3.7967,-3.7967,-3.7967,0,-3.757,-3.7628,-3.7624,-3.7669,-3.7689,-3.7669,-3.7719,-3.7737,-3.7773,-3.7788,-3.7767,-3.7845,-3.7861,-3.793,-3.7952,-3.7967,-3.798,-3.7957,-3.8052,-3.8061,-3.807,-3.81,-3.8111,-3.797,-3.797,-3.7969,-3.7969,0,-3.7676,-3.7717,-3.7754,-3.7789,-3.7814,-3.7861,-3.7864,-3.7889,-3.7883,-3.7888,-3.7945,-3.7964,-3.8001,-3.8017,-3.8012,-3.8085,-3.8073,-3.8053,-3.8016,-3.8085,-3.8113,-3.8125,-3.7974,-3.7973,-3.7972,-3.7971,0,0,-3.7787,-3.7818,-3.7832,-3.7847,-3.7874,-3.7906,-3.7952,-3.7988,-3.8009,-3.8035,-3.8073,-3.8126,-3.8107,-3.8128,-3.8124,-3.8156,-3.8225,-3.8132,-3.8132,-3.8148,-3.8307,-3.8321,-3.8335,-3.8215,-3.8218,-3.8219,-3.8304,0,-3.7871,-3.7952,-3.7948,-3.8023,-3.8061,-3.8041,-3.8081,-3.8102,-3.8109,-3.8141,-3.8148,-3.8186,-3.8158,-3.817,-3.8201,-3.821,-3.8257,-3.8204,-3.8251,-3.8252,-3.8244,-3.8349,-3.8365,-3.8444,-3.8315,-3.8317,-3.8318,0,-3.7981,-3.801,-3.8088,-3.8109,-3.8124,-3.816,-3.8193,-3.8224,-3.8247,-3.8249,-3.8272,-3.8262,-3.8309,-3.8271,-3.8335,-3.8299,-3.8318,-3.8325,-3.8328,-3.8332,-3.8289,-3.8356,-3.8469,-3.8481,-3.8336,-3.8334,-3.8333,0,-3.8053,-3.8111,-3.8165,-3.8179,-3.8205,-3.823,-3.8242,-3.8263,-3.8285,-3.8313,-3.8327,-3.836,-3.8378,-3.8405,-3.8404,-3.8377,-3.8469,-3.8431,-3.8471,-3.8472,-3.8491,-3.849,-3.8609,-3.8505,-3.8504,-3.8504,-3.8504,0,-3.8148,-3.8196,-3.8198,-3.8231,-3.8285,-3.828,-3.8333,-3.8343,-3.8361,-3.8396,-3.8382,-3.8414,-3.8412,-3.8446,-3.8446,-3.8498,-3.8507,-3.851,-3.8509,-3.8511,-3.851,-3.8523,-3.8517,-3.8507,-3.8507,-3.8506,-3.8505,0,-3.8237,-3.824,-3.8297,-3.8317,-3.8323,-3.8361,-3.8378,-3.8409,-3.8414,-3.8458,-3.8468,-3.8476,-3.8514,-3.8516,-3.8561,-3.8561,-3.8624,-3.8618,-3.8616,-3.8615,-3.8655,-3.8651,-3.8786,-3.8804,-3.8688,-3.8689,-3.869,0,-3.8297,-3.8333,-3.8356,-3.8378,-3.8392,-3.8427,-3.8449,-3.8446,-3.8469,-3.8498,-3.8525,-3.8562,-3.8591,-3.8653,-3.8663,-3.8697,-3.8691,-3.8736,-3.8696,-3.8696,-3.8691,-3.8688,-3.8692,-3.8743,-3.8745,-3.8746,-3.8747,0,-3.8402,-3.8402,-3.8433,-3.8465,-3.8491,-3.8517,-3.854,-3.8559,-3.8559,-3.8585,-3.8624,-3.8646,-3.8691,-3.8728,-3.876,-3.8773,-3.876,-3.8759,-3.877,-3.8772,-3.8769,-3.8771,-3.8637,-3.8756,-3.8755,-3.8754,-3.8754,-3.8753,-3.8478,-3.851,-3.853,-3.8566,-3.8583,-3.8605,-3.8635,-3.8643,-3.8675,-3.8711,-3.8708,-3.875,-3.8772,-3.8814,-3.8829,-3.8862,-3.8847,-3.8863,-3.8867,-3.8871,-3.8875,-3.8764,-3.8868,-3.8868,-3.8868,-3.8868,-3.8867,0,-3.8583,-3.8595,-3.8627,-3.866,-3.8688,-3.8673,-3.8698,-3.8722,-3.8759,-3.878,-3.8809,-3.8853,-3.8888,-3.89,-3.8934,-3.8959,-3.8954,-3.8968,-3.8966,-3.8969,-3.8887,-3.8874,-3.8971,-3.8971,-3.8971,-3.8971,-3.8971,-3.8971,-3.864,-3.8692,-3.8694,-3.8754,-3.8766,-3.8807,-3.8822,-3.8842,-3.8859,-3.8909,-3.8937,-3.8945,-3.8962,-3.8997,-3.9029,-3.9032,-3.9045,-3.9061,-3.9061,-3.8985,-3.8974,-3.8964,-3.8952,-3.9064,-3.9064,-3.914,-3.9141,-3.9141]}]]